Location: Asheville, NC
(35.6000°N, 82.5500°W)
Time: 09:24:39
(UTC-05:00)

CUBESAT XI-V - Pass Details

Date: 12 January 2018
Orbit: 670 x 694 km, 97.9° (Epoch: 20 January)

Event Time Altitude Azimuth Distance (km) Brightness Sun altitude
Rises 18:08:25 0° 345° (NNW) 3,039 ? -6.5°
Reaches altitude 10° 18:12:50 10° 305° (NW) 2,111 ? -7.4°
Maximum altitude 18:13:32 10° 297° (WNW) 2,087 ? -7.5°
Drops below altitude 10° 18:14:15 10° 288° (WNW) 2,107 ? -7.6°
Sets 18:18:39 0° 247° (WSW) 3,009 ? -8.5°
